Flag for Peru Weather past 2 weeks in Trujillo, La Libertad, Peru

Now
73 °F

Passing clouds.


Feels Like: 74 °F
Forecast: 71 / 78 °F
Wind: 12 mph from Southeast

Location: Trujillo Airport

Current Time: Mar 5, 2015 at 1:46:31 PM

Latest Report: Mar 5, 2015 at 1:00 PM


Visibility: N/A

Pressure: 29.83 "Hg

Humidity: 78%

Dew point: 66 °F

Location of TrujilloLocation

Historic Weather in Trujillo — Graph

°F

Trujillo temperature yesterday

Maximum temperature yesterday: 73 °F (at 11:00 AM)
Minimum temperature yesterday: 66 °F (at 2:00 AM)
Average temperature yesterday: 70 °F

Past Weeks' High & Low Weather Summary

 TemperatureHumidityPressure
High79 °F (Feb 23, 1:00 PM)100% (Feb 22, 12:00 AM)29.95 "Hg (Feb 22, 12:00 AM)
Low52 °F (Feb 22, 12:00 AM)70% (Feb 23, 1:00 PM)29.74 "Hg (Mar 3, 4:00 PM)
Average71 °F83%29.85 "Hg
* Reported Feb 18 1:00 PM — Mar 5 1:00 PM, Trujillo, Weather by CustomWeather, © 2015

Note: Actual official high and low records may vary slightly from our data, if they occured in-between our weather recording intervals... More about our weather records

Advertising

Trujillo weather history for previous 24 hours

 ConditionsComfort  
Time TempWeatherWind HumidityBarometerVisibility
1:00 PM
Thu, Mar 5
73 °FPassing clouds.12 mph78%29.83 "HgN/A
12:00 PM73 °FSunny.12 mph78%29.83 "Hg10 mi
11:00 AM72 °FSunny.14 mph83%29.83 "Hg10 mi
10:00 AM72 °FSunny.12 mph83%29.86 "Hg10 mi
9:00 AM72 °FPassing clouds.9 mph83%29.86 "Hg6 mi
8:00 AM68 °FScattered clouds.8 mph88%29.86 "Hg5 mi
7:00 AM66 °FScattered clouds.7 mph94%29.83 "Hg4 mi
6:00 AM66 °FFog.6 mph94%29.80 "Hg3 mi
5:00 AM68 °FPassing clouds.5 mph88%29.80 "Hg4 mi
4:00 AM68 °FPassing clouds.5 mph88%29.77 "Hg4 mi
3:00 AM68 °FFog.6 mph88%29.77 "Hg3 mi
2:00 AM68 °FPassing clouds.5 mph88%29.83 "Hg4 mi
1:00 AM68 °FPassing clouds.5 mph88%29.83 "Hg4 mi
12:00 AM68 °FPassing clouds.5 mph88%29.83 "Hg5 mi
11:00 PM
Wed, Mar 4
70 °FOvercast.5 mph83%29.86 "HgN/A
10:00 PM70 °FOvercast.6 mph83%29.86 "Hg4 mi
9:00 PM70 °FOvercast.8 mph83%29.83 "Hg5 mi
8:00 PM70 °FOvercast.9 mph83%29.83 "Hg4 mi
7:00 PM70 °FOvercast.13 mph83%29.80 "Hg5 mi
6:00 PM70 °FOvercast.9 mph83%29.77 "HgN/A
5:00 PM72 °FMostly cloudy.12 mph78%29.74 "HgN/A
4:00 PM72 °FOvercast.12 mph83%29.74 "HgN/A
3:00 PM73 °FOvercast.13 mph78%29.77 "HgN/A
2:00 PM73 °FMostly cloudy.13 mph74%29.77 "HgN/A
1:00 PM72 °FOvercast.12 mph78%29.83 "HgN/A
Weather by CustomWeather, © 2015

See weather overviewHow to use our weather pages